EW8862 Weather Reports


Display with metric or nautical units.
time (UTC)temp
F
wind
direction
speed
MPH
gust
MPH
rain 1hr
in
rain 24hr
in
rain mn
in
humidity
%
barometer
mb
20260505170030 60 56 3.0 8.0 0.00 0.00 0.00 59 1012.3
20260505164523 60 90 1.0 3.0 0.00 0.00 0.00 61 1012.3
20260505163024 60 68 2.0 4.0 0.00 0.00 0.00 60 1012.3
20260505161526 59 50 2.0 5.0 0.00 0.00 0.00 60 1012.3
20260505153021 59 106 1.0 7.0 0.00 0.00 0.00 63 1012.4
20260505151531 59 82 2.0 6.0 0.00 0.00 0.00 63 1012.5
20260505124526 60 347 1.0 7.0 0.00 0.00 0.00 57 1013.0
20260505123029 60 86 1.0 6.0 0.00 0.00 0.00 57 1013.0
20260505121532 61 59 1.0 5.0 0.00 0.00 0.00 57 1013.1
20260505120048 61 94 1.0 6.0 0.00 0.00 0.00 58 1013.1
20260505114523 59 23 2.0 5.0 0.00 0.00 0.00 62 1013.2
20260505113010 58 39 1.0 6.0 0.00 0.00 0.00 66 1013.2
20260505111517 58 82 1.0 5.0 0.00 0.00 0.00 68 1013.3
20260505101519 55 76 2.0 5.0 0.00 0.00 0.00 75 1013.6
20260505100022 54 60 2.0 7.0 0.00 0.00 0.00 75 1013.6
20260505094522 55 39 1.0 4.0 0.00 0.00 0.00 74 1013.7
20260505093025 55 115 1.0 6.0 0.00 0.00 0.00 76 1013.8
20260505091528 54 46 2.0 6.0 0.00 0.00 0.00 77 1013.8
20260505090026 54 72 1.0 4.0 0.00 0.00 0.00 77 1013.8
20260505084520 54 46 3.0 5.0 0.00 0.00 0.00 78 1013.9
20260505083021 54 94 1.0 5.0 0.00 0.00 0.00 81 1013.9
20260505081512 53 64 1.0 4.0 0.00 0.00 0.00 83 1014.0
20260505080011 52 283 2.0 4.0 0.00 0.00 0.00 83 1013.9
20260505074515 52 58 1.0 3.0 0.00 0.00 0.00 83 1013.9
20260505073032 52 110 1.0 4.0 0.00 0.00 0.00 84 1013.8
20260505071524 52 221 1.0 4.0 0.00 0.00 0.00 84 1013.9
20260505070010 52 80 1.0 4.0 0.00 0.00 0.00 85 1014.0
20260505064531 52 89 1.0 3.0 0.00 0.00 0.00 85 1014.0
20260505063019 51 286 0.0 4.0 0.00 0.00 0.00 86 1014.0
20260505061531 51 46 1.0 3.0 0.00 0.00 0.00 87 1014.0
20260505060028 50 34 0.0 1.0 0.00 0.00 0.00 87 1014.1
20260505054510 50 49 0.0 3.0 0.00 0.00 0.00 87 1014.1
20260505053013 50 47 1.0 4.0 0.00 0.00 0.00 87 1014.2
20260505051521 50 50 0.0 3.0 0.00 0.00 0.00 87 1014.1
20260505041520 50 45 0.0 2.0 0.00 0.00 0.00 87 1014.3
20260505040021 50 73 0.0 3.0 0.00 0.00 0.00 87 1014.3
20260505034528 50 47 0.0 3.0 0.00 0.00 0.00 87 1014.3
20260505033028 50 55 1.0 3.0 0.00 0.00 0.00 87 1014.3
20260505031536 50 72 1.0 2.0 0.00 0.00 0.00 87 1014.3
20260505030022 50 78 0.0 2.0 0.00 0.00 0.00 87 1014.3
20260505024533 50 27 0.0 2.0 0.00 0.00 0.00 87 1014.2
20260505023028 50 39 0.0 3.0 0.00 0.00 0.00 87 1014.4
20260505021530 50 42 0.0 1.0 0.00 0.00 0.00 87 1014.4
20260505020027 50 42 1.0 2.0 0.00 0.00 0.00 86 1014.3
20260505014528 51 16 1.0 3.0 0.00 0.00 0.00 85 1014.3
20260505013025 52 70 1.0 2.0 0.00 0.00 0.00 85 1014.6
20260505011533 52 68 0.0 2.0 0.00 0.00 0.00 84 1014.8
20260505010027 52 75 0.0 3.0 0.00 0.00 0.00 83 1014.9
20260505004537 53 81 1.0 2.0 0.00 0.00 0.00 83 1015.0
20260505003024 53 72 0.0 3.0 0.00 0.00 0.00 83 1014.9
20260505001528 53 50 1.0 3.0 0.00 0.00 0.00 83 1015.0
20260505000039 53 37 1.0 2.0 0.00 0.00 0.00 83 1015.0
20260504234531 53 37 0.0 1.0 0.00 0.00 0.00 83 1015.3
20260504233022 53 37 0.0 1.0 0.00 0.00 0.00 83 1015.3
20260504231522 53 52 0.0 1.0 0.00 0.00 0.00 84 1015.3
20260504230025 54 52 0.0 2.0 0.00 0.00 0.00 82 1015.3
20260504224529 54 60 1.0 4.0 0.00 0.00 0.00 82 1015.3
20260504223031 54 51 0.0 3.0 0.00 0.00 0.00 81 1015.4
20260504221522 55 50 0.0 2.0 0.00 0.00 0.00 80 1015.4
20260504220028 55 33 1.0 4.0 0.00 0.00 0.00 79 1015.4
20260504214528 55 53 1.0 4.0 0.00 0.00 0.00 79 1015.5
20260504213029 56 39 1.0 4.0 0.00 0.00 0.00 79 1015.6
20260504211530 56 77 0.0 3.0 0.00 0.00 0.00 79 1015.5
20260504210024 56 14 1.0 5.0 0.00 0.00 0.00 80 1015.5
20260504204528 56 53 1.0 3.0 0.00 0.00 0.00 80 1015.5
20260504203030 56 77 1.0 4.0 0.00 0.00 0.00 80 1015.5
20260504201530 56 64 1.0 4.0 0.00 0.00 0.00 79 1015.3
20260504200028 56 82 0.0 4.0 0.00 0.00 0.00 78 1015.2
20260504194526 57 48 1.0 6.0 0.00 0.00 0.00 78 1015.1
20260504193028 57 78 0.0 2.0 0.00 0.00 0.00 77 1015.0
20260504191527 58 55 0.0 2.0 0.00 0.00 0.00 76 1015.0
20260504190030 58 77 2.0 5.0 0.00 0.00 0.00 75 1014.9
20260504184529 58 72 1.0 5.0 0.00 0.00 0.00 75 1014.9
20260504183026 58 79 1.0 3.0 0.00 0.00 0.00 75 1014.8
20260504181529 59 47 1.0 4.0 0.00 0.00 0.00 74 1014.7
20260504180029 59 67 1.0 6.0 0.00 0.00 0.00 73 1014.5
20260504174530 60 79 1.0 3.0 0.00 0.00 0.00 72 1014.5
20260504173028 60 84 2.0 6.0 0.00 0.00 0.00 73 1014.5
20260504171524 59 78 1.0 6.0 0.00 0.00 0.00 75 1014.7